Home > Time Zones > World Clock > Weather > Chile > Talca > Past weeks

Flag for Chile Weather past 2 weeks in Talca, Chile

Now
57 °F

Clear.


Feels Like: 55 °F
Forecast: N/A
Wind: 10 mph from Southwest

Location: Concepcion Airport

Current Time: Sep 3, 2015 at 8:48:06 PM

Latest Report: Sep 3, 2015 at 8:00 PM


Visibility: 10 mi

Pressure: 30.07 "Hg

Humidity: 63%

Dew point: 45 °F

Location of TalcaLocation

Historic Weather in Talca — Graph

°F

Talca temperature yesterday

Maximum temperature yesterday: 64 °F (at 2:00 PM)
Minimum temperature yesterday: 43 °F (at 6:00 AM)
Average temperature yesterday: 53 °F

Past Weeks' High & Low Weather Summary

 TemperatureHumidityPressure
High64 °F (Aug 30, 2:00 PM)100% (Aug 20, 3:00 AM)30.24 "Hg (Aug 20, 3:00 AM)
Low41 °F (Sep 3, 7:00 AM)37% (Sep 3, 4:00 PM)29.71 "Hg (Aug 25, 7:00 AM)
Average54 °F87%30.02 "Hg
* Reported Aug 19 8:00 PM — Sep 3 8:00 PM, Talca, Weather by CustomWeather, © 2015

Note: Actual official high and low records may vary slightly from our data, if they occured in-between our weather recording intervals... More about our weather records

Advertising

Talca weather history for previous 24 hours

 ConditionsComfort  
Time TempWeatherWind HumidityBarometerVisibility
8:00 PM
Thu, Sep 3
57 °FClear.10 mph63%30.07 "Hg10 mi
7:00 PM61 °FClear.9 mph68%30.07 "Hg10 mi
6:00 PM63 °FSunny.13 mph49%30.07 "Hg10 mi
5:00 PM63 °FSunny.10 mph42%30.07 "Hg10 mi
4:00 PM64 °FSunny.12 mph37%30.07 "Hg10 mi
3:00 PM64 °FSunny.10 mph43%30.09 "Hg10 mi
2:00 PM61 °FSunny.14 mph42%30.12 "Hg10 mi
1:00 PM57 °FSunny.15 mph48%30.15 "Hg10 mi
12:00 PM54 °FPassing clouds.9 mph58%30.15 "HgN/A
11:00 AM52 °FSunny.8 mph54%30.18 "Hg10 mi
10:00 AM46 °FSunny.7 mph66%30.18 "Hg10 mi
9:00 AM43 °FSunny.2 mph76%30.18 "Hg10 mi
8:00 AM45 °FPassing clouds.8 mph66%30.15 "HgN/A
7:00 AM41 °FPassing clouds.5 mph70%30.15 "HgN/A
6:00 AM43 °FClear.2 mph71%30.15 "Hg10 mi
5:00 AM43 °FClear.5 mph76%30.15 "Hg10 mi
3:00 AM46 °FClear.6 mph71%30.18 "Hg10 mi
2:00 AM48 °FClear.7 mph66%30.18 "Hg10 mi
1:00 AM48 °FClear.6 mph71%30.21 "Hg10 mi
12:00 AM50 °FClear.5 mph71%30.21 "Hg10 mi
11:00 PM
Wed, Sep 2
50 °FClear.6 mph88%30.18 "Hg10 mi
10:00 PM52 °FClear.2 mph82%30.18 "Hg10 mi
9:00 PM54 °FClear.3 mph82%30.18 "Hg10 mi
8:00 PM57 °FPassing clouds.5 mph67%30.15 "HgN/A
Weather by CustomWeather, © 2015

See weather overviewHow to use our weather pages